www.pogodaiklimat.ru
ПОГОДА в Клерморе
Время
и дата
07:35 06.02
07:55 06.02
08:15 06.02
08:35 06.02
08:55 06.02
09:15 06.02
09:35 06.02
09:55 06.02
10:15 06.02
10:35 06.02
10:55 06.02
11:15 06.02
11:35 06.02
11:55 06.02
12:15 06.02
12:35 06.02
12:55 06.02
13:15 06.02
13:35 06.02
13:55 06.02
14:15 06.02
14:35 06.02
14:55 06.02
15:15 06.02
15:35 06.02
15:55 06.02
16:15 06.02
16:35 06.02
16:55 06.02
17:15 06.02
17:35 06.02
17:55 06.02
18:15 06.02
18:35 06.02
18:55 06.02
19:15 06.02
19:35 06.02
19:55 06.02
20:15 06.02
20:35 06.02
20:55 06.02
21:15 06.02
21:35 06.02
21:55 06.02
22:15 06.02
22:35 06.02
22:55 06.02
23:15 06.02
Ветер
(напр.,м/с)
Видим. Явления Облачность Т
(С)
Тd
(С)
f
(%)
Тe
(С)
Тes
(С)
Комфортность P
(гПа)
Po
(гПа)
Тmin
(С)
Tmax
(С)
R
(мм)
R24
(мм)
S
(см)
Ю 7
{10}
16 км ясно +11.0 +10.0 94 +7 +7 987.1
Ю 6
{10}
16 км ясно +11.0 +10.0 94 +8 +8 987.1
Ю 6
{10}
16 км ясно +11.0 +10.0 94 +8 +8 986.8
Ю 7
{11}
16 км ясно +12.0 +11.0 94 +9 +9 986.8
Ю 10
{13}
16 км ясно +14.0 +11.0 82 +11 +11 986.5
Ю 8
{15}
16 км ясно +15.0 +12.0 82 +13 +13 986.2
Ю 11
{15}
16 км ясно +16.0 +12.0 77 +14 +14 986.2
Ю 11
{15}
16 км ясно +17.0 +13.0 77 +15 +15 985.8
Ю 11
{15}
16 км ясно +16.0 +13.0 82 +14 +14 985.8
Ю 10
{15}
16 км ясно +17.0 +13.0 77 +15 +16 985.5
Ю 11
{16}
16 км ясно +17.0 +13.0 77 +15 +15 985.2
Ю 11
{15}
16 км ясно +18.0 +13.0 73 +17 +17 985.2
Ю 8
{14}
16 км ясно +18.0 +13.0 73 +17 +18 985.2
Ю 11
{18}
16 км 8/8 810 м +19.0 +13.0 68 +19 +19 984.8
Ю 12
{17}
16 км 8/8 840 м +20.0 +13.0 64 +21 +21 комфорт 984.8
Ю 11
{16}
16 км 10/10 780 м +19.0 +13.0 68 +19 +19 984.8
Ю 15
{19}
16 км 10/10 780 м +19.0 +13.0 68 +19 +19 984.8
Ю 10
{18}
16 км 10/10 720 м +17.0 +13.0 77 +15 +15 984.5
Ю 11
{15}
16 км 10/10 720 м +17.0 +13.0 77 +15 +15 984.2
Ю 12
{19}
16 км 10/10 750 м +18.0 +13.0 73 +17 +17 983.5
Ю 10
{15}
16 км 10/10 750 м +17.0 +13.0 77 +15 +15 983.8
Ю 11
{16}
16 км 10/10 750 м +17.0 +13.0 77 +15 +15 982.9
Ю 11
{15}
16 км 10/10 780 м +18.0 +13.0 73 +17 +17 982.9
Ю 11
{15}
16 км 10/10 720 м +18.0 +13.0 73 +17 +17 982.9
Ю 9
{14}
16 км 10/10 780 м +17.0 +13.0 77 +16 +16 983.2
Ю 11
{15}
16 км 10/10 840 м +18.0 +14.0 77 +17 +17 982.9
Ю 8
{14}
16 км 10/10 900 м +18.0 +14.0 77 +17 +17 983.2
Ю 10
{15}
16 км 10/10 870 м +18.0 +13.0 73 +17 +17 982.9
Ю 10
{14}
16 км 10/10 1050 м +18.0 +13.0 73 +17 +17 982.9
Ю 8
{13}
16 км 10/10 1080 м +18.0 +13.0 73 +17 +17 983.2
Ю 9
{12}
16 км 10/10 1140 м +18.0 +14.0 77 +17 +17 983.5
Ю 7
{13}
16 км 10/10 1080 м +17.0 +14.0 82 +16 +16 983.8
Ю 7
{10}
16 км 10/10 1110 м +17.0 +14.0 82 +16 +16 984.2
Ю 7
{10}
16 км 10/10 1170 м +17.0 +14.0 82 +16 +16 984.5
Ю 7
{10}
16 км 10/10 1230 м +17.0 +14.0 82 +16 +16 984.5
Ю 6
{9}
16 км 10/10 1320 м +17.0 +14.0 82 +16 +16 984.8
Ю 6 16 км 10/10 1080 м +17.0 +14.0 82 +16 +16 984.8
Ю 6 16 км 10/10 1440 м +17.0 +14.0 82 +16 +16 984.8
Ю 6
{8}
16 км 10/10 1440 м +17.0 +14.0 82 +16 +16 985.2
Ю 5
{7}
16 км 10/10 1440 м +17.0 +14.0 82 +16 +16 985.5
Ю 5 16 км 8/8 1440 м +16.0 +14.0 88 +15 +15 985.5
Ю 4 16 км 5/5 1500 m
[Ac]
+16.0 +14.0 88 +15 +15 985.8
Ю 3 16 км 8/8 1410 м +16.0 +14.0 88 +16 +16 986.2
Ю 3 16 км 10/10 1440 м +15.0 +14.0 94 +14 +14 986.2
Ю 2 16 км 10/10 1440 м +14.0 +13.0 94 +13 +13 986.2
Ю 3 16 км 8/8 1410 м +15.0 +13.0 88 +14 +14 986.2
Ю 3 16 км 2/2 1320 m
[Ac]
+14.0 +13.0 94 +13 +13 986.2
Ю 3 16 км ясно +14.0 +13.0 94 +13 +13 986.2
Местоположение метеостанции Claremore Regional Airport: широта 36.2944 долгота -95.4797 высота над уровнем моря 221 м.
В архиве по умолчанию представлена погода в Клерморе за последние 1-2 суток. Обновление информации о фактической погоде в базе происходит ежечасно! Архивные данные за месяц целиком и за предыдущие месяцы Вы можете получить, выбрав интересующий диапазон дат из раскрывающегося списка и нажав кнопку "Ввод!".
Внимание! Архив погоды МЕТАР в базе сайта по станциям, не включенным в климатический монитор, хранится не более 60 дней. Нет смысла пытаться выбрать более раннюю дату.
*Определитесь, кто Вы:
Внимание! Время в таблицах - местное (без учета летнего времени). Для получения всемирного времени необходимо вычесть поправку, которая равна -6 ч.
Смотрите также архив погоды в соседних городах и на ближайших метеорологических станциях:
Партнеры нашего сайта:      
Пояснения к столбцам:
  • Ветер - указаны скорость ветра в м/с - средняя за 10 мин, порывы в срок и между сроками (в фигурных скобках) и направление, откуда дует ветер: С - северный,
  • СВ - северо-восточный, В - восточный, ЮВ - юго-восточный, Ю - южный, ЮЗ - юго-западный, З - западный, СЗ - северо-западный.
  • Видимость - горизонтальная дальность видимости в метрах или километрах. При видимости от 1 до 10 км при отсутствии осадков обычно наблюдается дымка, при ухудшении видимости до 1 км и менее - туман. В сухую погоду видимость может ухудшаться дымом, пылью или мглою.
  • Явления - указаны атмосферные явления, наблюдавшиеся в срок или в последний час перед сроком; фигурными скобками обозначены явления, наблюдавшиеся между сроками (за 1-3 часа до срока); квадратными скобками обозначены град или гололедные отложения с указанием их диаметра в мм.
  • Облачность - указаны через наклонную черту общая и нижняя облачность в баллах и высота нижней границы облаков в метрах; квадратными скобками обозначены формы облаков: Ci - перистые, Cs - перисто-слоистые, Cc - перисто-кучевые, Ac - высококучевые, As - высокослоистые, Sc - слоисто-кучевые, Ns - слоисто-дождевые, Cu - кучевые, Cb - кучево-дождевые. Подробнее классификацию облаков см. в Атласе облаков (PDF).
  • T - Температура воздуха - температура, измеренная на высоте 2 м над землей.
  • Td - Температура точки росы - температура, при понижении до которой содержащийся в воздухе водяной пар достигнет насыщения.
  • f - Относительная влажность воздуха - влажноcть воздуха, измеренная на высоте 2 м над землей.
  • Te - Эффективная температура - температура, которую ощущает одетый по сезону человек в тени. Характеристика душности погоды. При расчете учитывается влияние влажности воздуха и скорости ветра на теплоощущения человека.
  • Tes - Эффективная температура на солнце - температура, которую ощущает человек, с поправкой на солнечный нагрев. Характеристика знойности погоды. Зависит от высоты солнца над горизонтом, облачности и скорости ветра. Ночью, в пасмурную погоду, а также при ветре 12 м/с и более поправка равна нулю.
  • P - Атмосферное давление - приведенное к уровню моря атмосферное давление.
  • Po - Атмосферное давление - измеренное на уровне метеостанции атмосферное давление.
  • Tmin - Минимальная температура - минимум температуры воздуха на высоте 2 м над землей.
  • Tmax - Максимальная температура - максимум температуры воздуха на высоте 2 м над землей.
  • R - Количество осадков - Количество выпавших осадков за период времени, мм. При наведении курсора мыши на число - период времени, за который выпало указанное количество осадков.
  • R24 - Количество осадков - Количество выпавших осадков за 24 часа, мм.
  • S - Снежный покров - Высота снежного покрова, см. При наведении курсора мыши на число - состояние снежного покрова и степень покрытия местности в баллах.